Location: ???????
(55.4362°N, 38.1183°E)
Time: 03:20:52
(UTC+00:00)

Cosmos 2333 Rocket - Pass Details

Date: 17 June 2021
Orbit: 841 x 861 km, 70.8° (Epoch: 26 July)

Event Time Altitude Azimuth Distance (km) Brightness Sun altitude
Exits shadow 19:13:59 - 184° (S) 3,326 4.8 -6.1°
Reaches altitude 10° 19:16:18 10° 177° (S) 2,490 4.1 -6.3°
Maximum altitude 19:21:35 39° 110° (ESE) 1,258 2.8 -6.6°
Drops below altitude 10° 19:26:51 10° 44° (NE) 2,494 4.9 -7.0°
Sets 19:29:26 0° 37° (NE) 3,431 5.7 -7.2°
